Tracking 35237 objects as of 4-Sep-2026
HD Live streaming from Space Station
objects crossing your sky now

STARLINK-5178

Track STARLINK-5178 now!
10-day predictions
STARLINK-5178 is classified as:


NORAD ID: 54083
Int'l Code: 2022-136AJ
Launch date: October 20, 2022
Source: United States (US)
Launch site: AIR FORCE EASTERN TEST RANGE (AFETR)
Your satellite tracking list
Your tracking list is empty




NASA's NSSDC Master Catalog

Two Line Element Set (TLE):
1 54083U 22136AJ  26247.75001156  .00030299  00000-0  15964-2 0  9990
2 54083  53.1591 249.6800 0002419  95.6592  11.5418 15.15369467  5728
Source of the keplerian elements: AFSPC